When you browse on this site, cookies collect data to enhance your experience and personalize the content and advertising you see.
Visit our Privacy Policy to learn more. By continuing to use the site, you agree to this use of cookies and data.
  • In France
  • List of Countries
  • For 7 days
  • Water Temperature
  • Weather Map
  • Weather Widgets
  • user-avatar
    Login

    Hourly Weather Gaborone

    Today, 26 August, Monday

    Time Temperature Precipitation Wind Pressure Humidity
    00:00 +15°C° 0 mm 1 mps 679 mmHg 32%
    01:00 +14°C° 0 mm 1 mps 679 mmHg 34%
    02:00 +14°C° 0 mm 1 mps 680 mmHg 36%
    03:00 +12°C° 0 mm 0 mps 679 mmHg 37%
    04:00 +12°C° 0 mm 0 mps 679 mmHg 38%
    05:00 +11°C° 0 mm 0 mps 679 mmHg 39%
    06:00 +13°C° 0 mm 0 mps 680 mmHg 36%
    07:00 +15°C° 0 mm 0 mps 681 mmHg 32%
    08:00 +18°C° 0 mm 1 mps 682 mmHg 29%
    09:00 +22°C° 0 mm 1 mps 682 mmHg 24%
    10:00 +25°C° 0 mm 1 mps 682 mmHg 20%
    11:00 +29°C° 0 mm 1 mps 683 mmHg 15%
    12:00 +29°C° 0 mm 2 mps 682 mmHg 14%
    13:00 +30°C° 0 mm 2 mps 681 mmHg 12%
    14:00 +31°C° 0 mm 2 mps 680 mmHg 11%
    15:00 +30°C° 0 mm 2 mps 680 mmHg 11%
    16:00 +30°C° 0 mm 2 mps 680 mmHg 11%
    17:00 +30°C° 0 mm 2 mps 679 mmHg 11%
    18:00 +27°C° 0 mm 1 mps 679 mmHg 15%
    19:00 +24°C° 0 mm 1 mps 678 mmHg 18%
    20:00 +21°C° 0 mm 1 mps 678 mmHg 21%
    21:00 +20°C° 0 mm 1 mps 678 mmHg 22%
    22:00 +20°C° 0 mm 1 mps 678 mmHg 23%
    23:00 +19°C° 0 mm 1 mps 679 mmHg 23%

    Tomorrow, 27 August, Tuesday

    Time Temperature Precipitation Wind Pressure Humidity
    00:00 +18°C° 0 mm 1 mps 678 mmHg 25%
    01:00 +16°C° 0 mm 1 mps 678 mmHg 26%
    02:00 +16°C° 0 mm 1 mps 678 mmHg 27%
    03:00 +15°C° 0 mm 1 mps 678 mmHg 28%
    04:00 +14°C° 0 mm 0 mps 677 mmHg 29%
    05:00 +13°C° 0 mm 0 mps 677 mmHg 30%
    06:00 +15°C° 0 mm 0 mps 678 mmHg 28%
    07:00 +16°C° 0 mm 0 mps 679 mmHg 25%
    08:00 +18°C° 0 mm 0 mps 679 mmHg 22%
    09:00 +21°C° 0 mm 0 mps 680 mmHg 18%
    10:00 +25°C° 0 mm 0 mps 680 mmHg 14%
    11:00 +31°C° 0 mm 1 mps 681 mmHg 10%
    12:00 +32°C° 0 mm 1 mps 680 mmHg 10%
    13:00 +32°C° 0 mm 2 mps 680 mmHg 9%
    14:00 +34°C° 0 mm 2 mps 679 mmHg 8%
    15:00 +34°C° 0 mm 2 mps 679 mmHg 8%
    16:00 +32°C° 0 mm 2 mps 678 mmHg 8%
    17:00 +33°C° 0 mm 3 mps 678 mmHg 8%
    18:00 +29°C° 0 mm 2 mps 678 mmHg 10%
    19:00 +25°C° 0 mm 2 mps 677 mmHg 12%
    20:00 +22°C° 0 mm 1 mps 677 mmHg 14%
    21:00 +21°C° 0 mm 1 mps 677 mmHg 14%
    22:00 +20°C° 0 mm 1 mps 677 mmHg 15%
    23:00 +19°C° 0 mm 1 mps 677 mmHg 16%

    Day after tomorrow, 28 August, Wednesday

    Time Temperature Precipitation Wind Pressure Humidity
    00:00 +19°C° 0 mm 1 mps 677 mmHg 16%
    01:00 +18°C° 0 mm 1 mps 677 mmHg 17%
    02:00 +17°C° 0 mm 2 mps 677 mmHg 17%
    03:00 +16°C° 0 mm 2 mps 676 mmHg 18%
    04:00 +15°C° 0 mm 2 mps 676 mmHg 19%
    05:00 +15°C° 0 mm 2 mps 676 mmHg 20%
    06:00 +16°C° 0 mm 1 mps 677 mmHg 19%
    07:00 +18°C° 0 mm 1 mps 678 mmHg 17%
    08:00 +19°C° 0 mm 1 mps 678 mmHg 16%
    09:00 +23°C° 0 mm 1 mps 679 mmHg 13%
    10:00 +27°C° 0 mm 1 mps 680 mmHg 11%
    11:00 +30°C° 0 mm 2 mps 680 mmHg 8%
    12:00 +31°C° 0 mm 2 mps 680 mmHg 7%
    13:00 +32°C° 0 mm 2 mps 679 mmHg 6%
    14:00 +34°C° 0 mm 2 mps 679 mmHg 5%
    15:00 +34°C° 0 mm 2 mps 678 mmHg 5%
    16:00 +34°C° 0 mm 2 mps 678 mmHg 5%
    17:00 +32°C° 0 mm 1 mps 677 mmHg 5%
    18:00 +29°C° 0 mm 1 mps 677 mmHg 7%
    19:00 +25°C° 0 mm 2 mps 677 mmHg 9%
    20:00 +21°C° 0 mm 2 mps 677 mmHg 10%
    21:00 +20°C° 0 mm 2 mps 677 mmHg 11%
    22:00 +19°C° 0 mm 2 mps 677 mmHg 11%
    23:00 +18°C° 0 mm 2 mps 677 mmHg 12%

    29 August, Thursday

    Time Temperature Precipitation Wind Pressure Humidity
    00:00 +17°C° 0 mm 2 mps 677 mmHg 13%
    01:00 +16°C° 0 mm 1 mps 677 mmHg 14%
    02:00 +15°C° 0 mm 1 mps 677 mmHg 15%
    03:00 +15°C° 0 mm 1 mps 677 mmHg 15%
    04:00 +15°C° 0 mm 1 mps 677 mmHg 16%
    05:00 +14°C° 0 mm 1 mps 677 mmHg 16%
    06:00 +16°C° 0 mm 3 mps 678 mmHg 25%
    07:00 +17°C° 0 mm 5 mps 678 mmHg 33%
    08:00 +20°C° 0 mm 6 mps 679 mmHg 41%
    09:00 +22°C° 0 mm 6 mps 679 mmHg 39%
    10:00 +24°C° 0 mm 6 mps 680 mmHg 36%
    11:00 +27°C° 0 mm 6 mps 680 mmHg 34%
    12:00 +29°C° 0 mm 6 mps 679 mmHg 29%
    13:00 +32°C° 0 mm 5 mps 679 mmHg 23%
    14:00 +34°C° 0 mm 5 mps 678 mmHg 18%
    15:00 +34°C° 0 mm 4 mps 678 mmHg 17%
    16:00 +34°C° 0 mm 4 mps 677 mmHg 15%
    17:00 +34°C° 0 mm 3 mps 677 mmHg 14%
    18:00 +30°C° 0 mm 4 mps 676 mmHg 21%
    19:00 +27°C° 0 mm 4 mps 676 mmHg 28%
    20:00 +23°C° 0 mm 4 mps 676 mmHg 35%
    21:00 +22°C° 0 mm 4 mps 676 mmHg 39%
    22:00 +21°C° 0 mm 4 mps 676 mmHg 43%
    23:00 +20°C° 0 mm 4 mps 676 mmHg 48%

    30 August, Friday

    Time Temperature Precipitation Wind Pressure Humidity
    00:00 +19°C° 0 mm 4 mps 676 mmHg 51%
    01:00 +19°C° 0 mm 4 mps 676 mmHg 55%
    02:00 +18°C° 0 mm 4 mps 675 mmHg 58%
    03:00 +17°C° 0 mm 4 mps 675 mmHg 60%
    04:00 +15°C° 0 mm 4 mps 675 mmHg 63%
    05:00 +14°C° 0 mm 3 mps 675 mmHg 65%
    06:00 +15°C° 0 mm 4 mps 676 mmHg 64%
    07:00 +17°C° 0 mm 4 mps 676 mmHg 63%
    08:00 +17°C° 0 mm 5 mps 677 mmHg 62%
    09:00 +21°C° 0 mm 5 mps 677 mmHg 52%
    10:00 +25°C° 0 mm 5 mps 677 mmHg 43%
    11:00 +28°C° 0 mm 5 mps 678 mmHg 33%
    12:00 +32°C° 0 mm 5 mps 677 mmHg 26%
    13:00 +34°C° 0 mm 6 mps 677 mmHg 19%
    14:00 +38°C° 0 mm 6 mps 676 mmHg 12%
    15:00 +36°C° 0 mm 6 mps 675 mmHg 12%
    16:00 +36°C° 0 mm 6 mps 675 mmHg 11%
    17:00 +36°C° 0 mm 6 mps 674 mmHg 11%
    18:00 +33°C° 0 mm 5 mps 674 mmHg 13%
    19:00 +29°C° 0 mm 4 mps 674 mmHg 16%
    20:00 +26°C° 0 mm 3 mps 674 mmHg 19%
    21:00 +24°C° 0 mm 3 mps 674 mmHg 17%
    22:00 +22°C° 0 mm 4 mps 674 mmHg 15%
    23:00 +21°C° 0 mm 5 mps 675 mmHg 13%

    31 August, Saturday

    Time Temperature Precipitation Wind Pressure Humidity
    00:00 +19°C° 0 mm 4 mps 675 mmHg 13%
    01:00 +18°C° 0 mm 4 mps 675 mmHg 13%
    02:00 +17°C° 0 mm 4 mps 674 mmHg 14%
    03:00 +14°C° 0 mm 3 mps 675 mmHg 14%
    04:00 +13°C° 0 mm 3 mps 675 mmHg 15%
    05:00 +13°C° 0 mm 2 mps 675 mmHg 16%
    06:00 +13°C° 0 mm 3 mps 675 mmHg 15%
    07:00 +14°C° 0 mm 3 mps 676 mmHg 13%
    08:00 +15°C° 0 mm 4 mps 677 mmHg 12%
    09:00 +19°C° 0 mm 4 mps 677 mmHg 10%
    10:00 +22°C° 0 mm 4 mps 678 mmHg 7%
    11:00 +25°C° 0 mm 4 mps 678 mmHg 5%
    12:00 +27°C° 0 mm 4 mps 678 mmHg 4%
    13:00 +29°C° 0 mm 4 mps 678 mmHg 3%
    14:00 +30°C° 0 mm 4 mps 677 mmHg 3%
    15:00 +30°C° 0 mm 5 mps 677 mmHg 3%
    16:00 +29°C° 0 mm 5 mps 677 mmHg 3%
    17:00 +29°C° 0 mm 5 mps 677 mmHg 3%
    18:00 +25°C° 0 mm 4 mps 677 mmHg 4%
    19:00 +21°C° 0 mm 4 mps 677 mmHg 5%
    20:00 +18°C° 0 mm 3 mps 677 mmHg 7%
    21:00 +16°C° 0 mm 3 mps 677 mmHg 8%
    22:00 +14°C° 0 mm 3 mps 677 mmHg 9%
    23:00 +13°C° 0 mm 2 mps 677 mmHg 10%
    Show more